timestamp,wind_dir_avg,wind_spd_avg,wind_spd_max_dir,wind_spd_gust,battery_voltage,lat,long
2022-03-08 00:04:01+00:00,87.0,4.07,94.0,8.81,12.41,47.59359,-54.27349
2022-03-08 00:14:01+00:00,92.0,4.63,89.0,9.49,12.41,47.59359,-54.27349
2022-03-08 00:24:01+00:00,98.0,4.81,80.0,9.29,12.41,47.59359,-54.27349
2022-03-08 00:34:01+00:00,99.0,4.86,105.0,9.26,12.41,47.59359,-54.27349
2022-03-08 00:44:01+00:00,92.0,3.93,74.0,8.67,12.41,47.59359,-54.27349
2022-03-08 00:54:01+00:00,89.0,3.33,85.0,7.06,12.41,47.59359,-54.27349
2022-03-08 01:04:01+00:00,104.0,4.39,121.0,8.25,12.41,47.59359,-54.27349
2022-03-08 01:14:00+00:00,127.0,4.57,131.0,5.48,12.41,47.59359,-54.27349
2022-03-08 01:24:00+00:00,137.0,4.38,134.0,4.84,12.41,47.59359,-54.27349
2022-03-08 01:34:00+00:00,134.0,4.5,142.0,5.24,12.41,47.59359,-54.27349
2022-03-08 01:44:00+00:00,129.0,4.25,132.0,5.49,12.41,47.59359,-54.27349
2022-03-08 01:54:00+00:00,158.0,3.08,142.0,4.03,12.41,47.59359,-54.27349
2022-03-08 02:04:00+00:00,157.0,3.4,146.0,4.01,12.41,47.59359,-54.27349
2022-03-08 02:14:01+00:00,161.0,3.26,134.0,4.24,12.33,47.59359,-54.27349
2022-03-08 02:24:01+00:00,189.0,2.98,182.0,3.75,12.33,47.59359,-54.27349
2022-03-08 02:34:01+00:00,130.0,4.4,132.0,5.44,12.33,47.59359,-54.27349
2022-03-08 02:44:01+00:00,130.0,4.25,127.0,4.93,12.33,47.59359,-54.27349
2022-03-08 02:54:01+00:00,130.0,4.75,136.0,5.4,12.33,47.59359,-54.27349
2022-03-08 03:04:01+00:00,127.0,5.18,127.0,6.07,12.33,47.59359,-54.27349
2022-03-08 03:14:00+00:00,126.0,4.57,129.0,5.08,12.33,47.59359,-54.27349
2022-03-08 03:24:00+00:00,126.0,4.66,122.0,5.33,12.33,47.59359,-54.27349
2022-03-08 03:34:00+00:00,137.0,4.19,139.0,5.04,12.33,47.59359,-54.27349
2022-03-08 03:44:00+00:00,133.0,4.94,133.0,5.43,12.33,47.59359,-54.27349
2022-03-08 03:54:00+00:00,136.0,5.52,133.0,6.29,12.33,47.59359,-54.27349
2022-03-08 04:04:00+00:00,135.0,5.46,141.0,5.99,12.33,47.59359,-54.27349
2022-03-08 04:14:01+00:00,140.0,4.57,141.0,5.53,12.33,47.59359,-54.27349
2022-03-08 04:24:01+00:00,139.0,5.76,143.0,6.53,12.33,47.59359,-54.27349
2022-03-08 04:34:01+00:00,134.0,5.16,137.0,5.71,12.33,47.59359,-54.27349
2022-03-08 04:44:01+00:00,130.0,4.07,130.0,5.02,12.33,47.59359,-54.27349
2022-03-08 04:54:01+00:00,149.0,2.83,129.0,4.0,12.33,47.59359,-54.27349
2022-03-08 05:04:01+00:00,140.0,4.0,135.0,4.76,12.33,47.59359,-54.27349
2022-03-08 05:14:00+00:00,131.0,2.75,123.0,4.03,12.25,47.59359,-54.27349
2022-03-08 05:24:00+00:00,143.0,2.61,120.0,4.58,12.25,47.59359,-54.27349
2022-03-08 05:34:00+00:00,145.0,2.69,132.0,4.37,12.25,47.59359,-54.27349
2022-03-08 05:44:00+00:00,146.0,3.25,135.0,4.61,12.25,47.59359,-54.27349
2022-03-08 05:54:00+00:00,128.0,4.75,131.0,5.22,12.25,47.59359,-54.27349
2022-03-08 06:04:00+00:00,126.0,4.68,119.0,5.85,12.25,47.59359,-54.27349
2022-03-08 06:14:00+00:00,137.0,5.25,140.0,6.05,12.25,47.59359,-54.27349
2022-03-08 06:24:00+00:00,140.0,4.29,137.0,5.52,12.25,47.59359,-54.27349
2022-03-08 06:34:00+00:00,132.0,4.82,138.0,5.38,12.25,47.59359,-54.27349
2022-03-08 06:44:00+00:00,152.0,5.38,149.0,7.23,12.25,47.59359,-54.27349
2022-03-08 06:54:00+00:00,149.0,5.58,149.0,6.8,12.25,47.59359,-54.27349
2022-03-08 07:04:00+00:00,150.0,5.59,144.0,6.43,12.25,47.59359,-54.27349
2022-03-08 07:14:01+00:00,148.0,6.23,150.0,7.31,12.25,47.59359,-54.27349
2022-03-08 07:24:01+00:00,145.0,6.63,146.0,7.21,12.25,47.59359,-54.27349
2022-03-08 07:34:01+00:00,149.0,5.57,143.0,6.77,12.25,47.59359,-54.27349
2022-03-08 07:44:01+00:00,151.0,5.63,146.0,6.52,12.25,47.59359,-54.27349
2022-03-08 07:54:01+00:00,146.0,5.62,142.0,6.39,12.25,47.59359,-54.27349
2022-03-08 08:04:01+00:00,154.0,5.54,150.0,6.73,12.25,47.59359,-54.27349
2022-03-08 08:14:00+00:00,149.0,5.55,145.0,6.24,12.17,47.59359,-54.27349
2022-03-08 08:24:00+00:00,153.0,5.92,151.0,6.98,12.17,47.59359,-54.27349
2022-03-08 08:34:00+00:00,149.0,6.19,151.0,7.25,12.17,47.59359,-54.27349
2022-03-08 08:44:00+00:00,142.0,6.07,144.0,6.76,12.17,47.59359,-54.27349
2022-03-08 08:54:00+00:00,149.0,6.68,152.0,7.47,12.17,47.59359,-54.27349
2022-03-08 09:04:00+00:00,148.0,7.43,153.0,8.43,12.17,47.59359,-54.27349
2022-03-08 09:14:01+00:00,147.0,7.95,130.0,11.3,12.17,47.59359,-54.27349
2022-03-08 09:24:01+00:00,154.0,7.75,155.0,8.94,12.17,47.59359,-54.27349
2022-03-08 09:34:01+00:00,188.0,6.66,162.0,8.29,12.17,47.59359,-54.27349
2022-03-08 09:44:01+00:00,173.0,5.67,144.0,7.12,12.17,47.59359,-54.27349
2022-03-08 09:54:01+00:00,166.0,5.59,150.0,7.41,12.17,47.59359,-54.27349
2022-03-08 10:04:01+00:00,148.0,7.51,139.0,9.76,12.17,47.59359,-54.27349
2022-03-08 10:14:01+00:00,148.0,9.26,137.0,11.89,12.17,47.59359,-54.27349
2022-03-08 10:24:01+00:00,158.0,8.52,145.0,10.29,12.17,47.59359,-54.27349
2022-03-08 10:34:01+00:00,175.0,8.92,158.0,10.04,12.17,47.59359,-54.27349
2022-03-08 10:44:01+00:00,161.0,7.67,156.0,9.04,12.17,47.59359,-54.27349
2022-03-08 10:54:01+00:00,163.0,6.46,150.0,7.58,12.17,47.59359,-54.27349
2022-03-08 11:04:01+00:00,147.0,5.57,144.0,6.67,12.17,47.59359,-54.27349
2022-03-08 11:14:01+00:00,152.0,6.59,146.0,7.93,12.17,47.59359,-54.27349
2022-03-08 11:24:01+00:00,162.0,6.38,149.0,7.95,12.17,47.59359,-54.27349
2022-03-08 11:34:01+00:00,164.0,7.03,157.0,8.54,12.17,47.59359,-54.27349
2022-03-08 11:44:01+00:00,190.0,7.46,191.0,8.09,12.17,47.59359,-54.27349
2022-03-08 11:54:01+00:00,183.0,8.83,185.0,9.77,12.17,47.59359,-54.27349
2022-03-08 12:04:01+00:00,162.0,9.94,141.0,12.5,12.17,47.59359,-54.27349
2022-03-08 12:14:00+00:00,183.0,9.67,185.0,11.81,12.17,47.59359,-54.27349
2022-03-08 12:24:00+00:00,178.0,10.52,161.0,12.08,12.17,47.59359,-54.27349
2022-03-08 12:34:00+00:00,176.0,8.8,171.0,11.04,12.17,47.59359,-54.27349
2022-03-08 12:44:00+00:00,154.0,8.68,148.0,9.92,12.17,47.59359,-54.27349
2022-03-08 12:54:00+00:00,157.0,8.43,157.0,9.83,12.17,47.59359,-54.27349
2022-03-08 13:04:00+00:00,153.0,7.05,123.0,9.68,12.17,47.59359,-54.27349
2022-03-08 13:14:00+00:00,173.0,6.94,138.0,9.75,12.33,47.59359,-54.27349
2022-03-08 13:24:00+00:00,190.0,7.22,197.0,8.87,12.33,47.59359,-54.27349
2022-03-08 13:34:00+00:00,183.0,9.59,189.0,11.1,12.33,47.59359,-54.27349
2022-03-08 13:44:00+00:00,176.0,9.41,175.0,10.55,12.33,47.59359,-54.27349
2022-03-08 13:54:00+00:00,183.0,6.6,182.0,7.64,12.33,47.59359,-54.27349
2022-03-08 14:04:00+00:00,180.0,7.57,184.0,10.04,12.33,47.59359,-54.27349
2022-03-08 14:14:01+00:00,181.0,9.3,163.0,14.02,12.73,47.59359,-54.27349
2022-03-08 14:24:01+00:00,174.0,13.84,175.0,15.95,12.73,47.59359,-54.27349
2022-03-08 14:34:01+00:00,202.0,11.57,204.0,14.32,12.73,47.59359,-54.27349
2022-03-08 14:44:01+00:00,197.0,15.66,196.0,17.13,12.73,47.59359,-54.27349
2022-03-08 14:54:01+00:00,199.0,12.84,202.0,15.17,12.73,47.59359,-54.27349
2022-03-08 15:04:01+00:00,204.0,15.53,213.0,19.35,12.73,47.59359,-54.27349
2022-03-08 15:14:00+00:00,218.0,17.46,226.0,20.71,13.29,47.59359,-54.27349
2022-03-08 15:24:00+00:00,217.0,15.49,220.0,18.42,13.29,47.59359,-54.27349
2022-03-08 15:34:00+00:00,220.0,14.32,221.0,17.83,13.29,47.59359,-54.27349
2022-03-08 15:44:00+00:00,228.0,16.13,219.0,20.96,13.29,47.59359,-54.27349
2022-03-08 15:54:00+00:00,229.0,16.13,230.0,19.36,13.29,47.59359,-54.27349
2022-03-08 16:04:00+00:00,232.0,15.28,233.0,18.01,13.29,47.59359,-54.27349
2022-03-08 16:14:01+00:00,235.0,14.27,236.0,16.16,13.84,47.59359,-54.27349
2022-03-08 16:24:01+00:00,236.0,15.11,234.0,16.72,13.84,47.59359,-54.27349
2022-03-08 16:34:01+00:00,233.0,15.45,227.0,17.03,13.84,47.59359,-54.27349
2022-03-08 16:44:01+00:00,234.0,15.53,232.0,17.28,13.84,47.59359,-54.27349
2022-03-08 16:54:01+00:00,235.0,15.0,229.0,16.88,13.84,47.59359,-54.27349
2022-03-08 17:04:01+00:00,235.0,15.01,232.0,16.85,13.84,47.59359,-54.27349
2022-03-08 17:14:01+00:00,232.0,15.57,230.0,17.33,13.6,47.59359,-54.27349
2022-03-08 17:24:01+00:00,230.0,14.93,237.0,17.31,13.6,47.59359,-54.27349
2022-03-08 17:34:01+00:00,237.0,17.42,239.0,21.06,13.6,47.59359,-54.27349
2022-03-08 17:44:01+00:00,242.0,13.9,242.0,16.55,13.6,47.59359,-54.27349
2022-03-08 17:54:01+00:00,238.0,12.91,236.0,14.92,13.6,47.59359,-54.27349
2022-03-08 18:04:01+00:00,240.0,18.21,229.0,23.34,13.6,47.59359,-54.27349
2022-03-08 18:14:01+00:00,241.0,16.61,249.0,19.98,13.6,47.59359,-54.27349
2022-03-08 18:24:01+00:00,242.0,17.06,239.0,22.95,13.6,47.59359,-54.27349
2022-03-08 18:34:01+00:00,247.0,20.6,257.0,26.35,13.6,47.59359,-54.27349
2022-03-08 18:44:01+00:00,248.0,22.21,247.0,28.11,13.6,47.59359,-54.27349
2022-03-08 18:54:01+00:00,255.0,18.9,260.0,26.03,13.6,47.59359,-54.27349
2022-03-08 19:04:01+00:00,258.0,18.12,259.0,21.49,13.6,47.59359,-54.27349
2022-03-08 19:14:00+00:00,249.0,17.74,254.0,22.08,14.32,47.59359,-54.27349
2022-03-08 19:24:00+00:00,255.0,17.8,269.0,20.49,14.32,47.59359,-54.27349
2022-03-08 19:34:00+00:00,248.0,17.79,248.0,22.18,14.32,47.59359,-54.27349
2022-03-08 19:44:00+00:00,263.0,18.3,265.0,24.25,14.32,47.59359,-54.27349
2022-03-08 19:54:00+00:00,258.0,18.2,254.0,19.25,14.32,47.59359,-54.27349
2022-03-08 20:04:00+00:00,251.0,17.46,254.0,19.7,14.32,47.59359,-54.27349
2022-03-08 20:14:01+00:00,256.0,17.66,254.0,21.88,13.21,47.59359,-54.27349
2022-03-08 20:24:01+00:00,255.0,18.45,254.0,26.43,13.21,47.59359,-54.27349
2022-03-08 20:34:01+00:00,256.0,18.16,260.0,22.7,13.21,47.59359,-54.27349
2022-03-08 20:44:01+00:00,256.0,20.69,249.0,26.68,13.21,47.59359,-54.27349
2022-03-08 20:54:01+00:00,258.0,18.98,257.0,25.95,13.21,47.59359,-54.27349
2022-03-08 21:04:01+00:00,266.0,20.97,274.0,26.09,13.21,47.59359,-54.27349
2022-03-08 21:14:01+00:00,263.0,18.89,270.0,25.78,12.65,47.59359,-54.27349
2022-03-08 21:24:01+00:00,257.0,17.96,255.0,21.67,12.65,47.59359,-54.27349
2022-03-08 21:34:01+00:00,260.0,19.4,264.0,24.58,12.65,47.59359,-54.27349
2022-03-08 21:44:01+00:00,260.0,18.6,262.0,24.37,12.65,47.59359,-54.27349
2022-03-08 21:54:01+00:00,256.0,22.59,262.0,27.81,12.65,47.59359,-54.27349
2022-03-08 22:04:01+00:00,256.0,20.21,256.0,24.43,12.65,47.59359,-54.27349
2022-03-08 22:14:01+00:00,264.0,18.18,274.0,21.29,12.49,47.59359,-54.27349
2022-03-08 22:24:01+00:00,262.0,17.89,274.0,21.97,12.49,47.59359,-54.27349
2022-03-08 22:34:01+00:00,266.0,18.89,262.0,25.09,12.49,47.59359,-54.27349
2022-03-08 22:44:01+00:00,263.0,18.86,264.0,23.4,12.49,47.59359,-54.27349
2022-03-08 22:54:01+00:00,266.0,17.85,264.0,23.08,12.49,47.59359,-54.27349
2022-03-08 23:04:01+00:00,264.0,18.81,260.0,23.5,12.49,47.59359,-54.27349
2022-03-08 23:14:00+00:00,261.0,20.16,259.0,25.4,12.41,47.59359,-54.27349
2022-03-08 23:24:00+00:00,265.0,17.86,268.0,20.26,12.41,47.59359,-54.27349
2022-03-08 23:34:00+00:00,267.0,17.71,272.0,21.32,12.41,47.59359,-54.27349
2022-03-08 23:44:00+00:00,266.0,17.34,268.0,18.82,12.41,47.59359,-54.27349
2022-03-08 23:54:00+00:00,271.0,17.94,272.0,24.33,12.41,47.59359,-54.27349
